H1 CPF 2 NER 2021 8 16 9 228 01 glonass137 H2 1705501 9137 42939 2021 8 16 0 0 0 2021 8 19 23 45 0 900 1 1 0 0 0 1 H9 10 0 59442 0.00000 0 3453051.297 17743175.134 18007517.029 10 0 59442 900.00000 0 2961485.617 19771521.657 15849251.491 10 0 59442 1800.00000 0 2675402.514 21551698.171 13383293.398 10 0 59442 2700.00000 0 2563072.902 23031679.283 10657421.472 10 0 59442 3600.00000 0 2583910.296 24168715.910 7724499.485 10 0 59442 4500.00000 0 2690413.635 24931030.743 4641455.613 10 0 59442 5400.00000 0 2830410.047 25299073.770 1468178.935 10 0 59442 6300.00000 0 2949502.537 25266284.211 -1733645.651 10 0 59442 7200.00000 0 2993618.390 24839325.901 -4901741.045 10 0 59442 8100.00000 0 2911549.399 24037785.450 -7974456.088 10 0 59442 9000.00000 0 2657375.057 22893345.223 -10891973.706 10 0 59442 9900.00000 0 2192664.624 21448465.565 -13597484.416 10 0 59442 10800.00000 0 1488363.201 19754631.649 -16038301.402 10 0 59442 11700.00000 0 526280.330 17870238.815 -18166894.526 10 0 59442 12600.00000 0 -699883.344 15858205.696 -19941822.333 10 0 59442 13500.00000 0 -2184016.215 13783415.823 -21328543.454 10 0 59442 14400.00000 0 -3907605.898 11710095.527 -22300091.346 10 0 59442 15300.00000 0 -5840280.082 9699238.418 -22837599.198 10 0 59442 16200.00000 0 -7940856.258 7806184.468 -22930664.994 10 0 59442 17100.00000 0 -10158856.980 6078454.819 -22577549.962 10 0 59442 18000.00000 0 -12436427.624 4553932.493 -21785206.941 10 0 59442 18900.00000 0 -14710576.729 3259464.200 -20569138.553 10 0 59442 19800.00000 0 -16915645.468 2209940.549 -18953088.366 10 0 59442 20700.00000 0 -18985903.114 1407891.741 -16968571.466 10 0 59442 21600.00000 0 -20858160.168 843613.895 -14654253.950 10 0 59442 22500.00000 0 -22474290.113 495818.866 -12055193.740 10 0 59442 23400.00000 0 -23783554.525 332778.359 -9221957.932 10 0 59442 24300.00000 0 -24744634.712 313912.343 -6209634.190 10 0 59442 25200.00000 0 -25327285.362 391753.162 -3076755.819 10 0 59442 26100.00000 0 -25513541.648 514201.059 115838.121 10 0 59442 27000.00000 0 -25298430.062 626974.744 3306185.157 10 0 59442 27900.00000 0 -24690154.130 676152.631 6432401.025 10 0 59442 28800.00000 0 -23709748.178 610696.908 9433876.996 10 0 59442 29700.00000 0 -22390214.511 384853.542 12252449.839 10 0 59442 30600.00000 0 -20775180.820 -39673.143 14833522.072 10 0 59442 31500.00000 0 -18917134.454 -691862.958 17127111.271 10 0 59442 32400.00000 0 -16875307.418 -1589917.652 19088808.984 10 0 59442 33300.00000 0 -14713300.159 -2740255.648 20680631.613 10 0 59442 34200.00000 0 -12496542.638 -4137006.273 21871747.792 10 0 59442 35100.00000 0 -10289697.553 -5762025.380 22639069.182 10 0 59442 36000.00000 0 -8154112.604 -7585432.808 22967694.100 10 0 59442 36900.00000 0 -6145426.591 -9566650.541 22851195.913 10 0 59442 37800.00000 0 -4311427.596 -11655899.944 22291750.876 10 0 59442 38700.00000 0 -2690251.099 -13796097.508 21300102.739 10 0 59442 39600.00000 0 -1308992.114 -15925071.869 19895364.252 10 0 59442 40500.00000 0 -182788.333 -17978011.482 18104658.525 10 0 59442 41400.00000 0 685587.989 -19890042.396 15962605.986 10 0 59442 42300.00000 0 1305612.586 -21598829.594 13510665.652 10 0 59442 43200.00000 0 1698371.217 -23047093.933 10796342.180 10 0 59442 44100.00000 0 1895428.007 -24184939.568 7872272.916 10 0 59442 45000.00000 0 1937247.636 -24971894.054 4795211.868 10 0 59442 45900.00000 0 1871238.044 -25378574.889 1624929.774 10 0 59442 46800.00000 0 1749496.579 -25387911.552 -1576948.476 10 0 59442 47700.00000 0 1626355.431 -24995870.523 -4748146.162 10 0 59442 48600.00000 0 1555831.081 -24211651.700 -7826952.763 10 0 59442 49500.00000 0 1589086.923 -23057346.896 -10753433.215 10 0 59442 50400.00000 0 1772017.825 -21567074.060 -13470603.729 10 0 59442 51300.00000 0 2143060.441 -19785623.126 -15925550.296 10 0 59442 52200.00000 0 2731323.503 -17766670.196 -18070467.214 10 0 59442 53100.00000 0 3555118.659 -15570635.164 -19863594.542 10 0 59442 54000.00000 0 4620955.348 -13262272.900 -21270035.818 10 0 59442 54900.00000 0 5923043.408 -10908099.228 -22262439.819 10 0 59442 55800.00000 0 7443325.378 -8573759.838 -22821533.059 10 0 59442 56700.00000 0 9152038.032 -6321452.277 -22936492.861 10 0 59442 57600.00000 0 11008780.202 -4207508.673 -22605154.073 10 0 59442 58500.00000 0 12964042.495 -2280239.825 -21834045.779 10 0 59442 59400.00000 0 14961135.062 -578129.972 -20638257.757 10 0 59442 60300.00000 0 16938432.824 871543.502 -19041139.671 10 0 59442 61200.00000 0 18831844.129 2053609.040 -17073839.281 10 0 59442 62100.00000 0 20577399.484 2965382.719 -14774689.038 10 0 59442 63000.00000 0 22113851.991 3616518.814 -12188453.323 10 0 59442 63900.00000 0 23385180.571 4028337.362 -9365451.417 10 0 59442 64800.00000 0 24342891.251 4232659.045 -6360573.650 10 0 59442 65700.00000 0 24948020.370 4270198.348 -3232210.207 10 0 59442 66600.00000 0 25172756.066 4188584.395 -41113.948 10 0 59442 67500.00000 0 25001610.647 4040094.412 3150780.371 10 0 59442 68400.00000 0 24432095.316 3879196.592 6281557.252 10 0 59442 69300.00000 0 23474869.639 3760006.886 9290518.510 10 0 59442 70200.00000 0 22153360.174 3733767.534 12119355.049 10 0 59442 71100.00000 0 20502864.720 3846453.915 14713270.035 10 0 59442 72000.00000 0 18569179.994 4136610.610 17022032.122 10 0 59442 72900.00000 0 16406810.108 4633507.706 19000939.216 10 0 59442 73800.00000 0 14076830.263 5355694.872 20611675.017 10 0 59442 74700.00000 0 11644494.124 6310014.001 21823042.763 10 0 59442 75600.00000 0 9176683.476 7491112.210 22611562.979 10 0 59442 76500.00000 0 6739305.016 8881476.303 22961924.517 10 0 59442 77400.00000 0 4394741.129 10451988.231 22867280.692 10 0 59442 78300.00000 0 2199459.126 12162979.736 22329385.077 10 0 59442 79200.00000 0 201876.856 13965743.734 21358564.137 10 0 59442 80100.00000 0 -1559427.732 15804441.032 19973526.723 10 0 59442 81000.00000 0 -3057089.594 17618324.498 18201013.200 10 0 59442 81900.00000 0 -4275855.749 19344189.369 16075289.871 10 0 59442 82800.00000 0 -5212973.434 20918948.440 13637497.196 10 0 59442 83700.00000 0 -5878051.359 22282225.266 10934863.180 10 0 59442 84600.00000 0 -6292399.982 23378857.068 8019795.983 10 0 59442 85500.00000 0 -6487878.544 24161202.185 4948872.541 10 0 59443 0.00000 0 -6505297.529 24591154.638 1781742.358 10 0 59443 900.00000 0 -6392444.264 24641779.768 -1420032.817 10 0 59443 1800.00000 0 -6201815.205 24298501.932 -4594179.523 10 0 59443 2700.00000 0 -5988152.062 23559791.127 -7678930.719 10 0 59443 3600.00000 0 -5805886.458 22437320.288 -10614236.022 10 0 59443 4500.00000 0 -5706602.869 20955584.104 -13342939.775 10 0 59443 5400.00000 0 -5736628.460 19150995.148 -15811902.959 10 0 59443 6300.00000 0 -5934853.306 17070494.453 -17973046.190 10 0 59443 7200.00000 0 -6330874.550 14769734.687 -19784292.655 10 0 59443 8100.00000 0 -6943544.275 12310911.982 -21210392.133 10 0 59443 9000.00000 0 -7779983.542 9760337.324 -22223609.787 10 0 59443 9900.00000 0 -8835105.084 7185849.320 -22804266.256 10 0 59443 10800.00000 0 -10091665.542 4654176.525 -22941118.703 10 0 59443 11700.00000 0 -11520845.561 2228359.376 -22631575.774 10 0 59443 12600.00000 0 -13083333.667 -34660.878 -21881742.603 10 0 59443 13500.00000 0 -14730868.576 -2086186.338 -20706295.524 10 0 59443 14400.00000 0 -16408175.249 -3887551.153 -19128189.279 10 0 59443 15300.00000 0 -18055213.330 -5411481.335 -17178202.874 10 0 59443 16200.00000 0 -19609643.536 -6642970.443 -14894333.322 10 0 59443 17100.00000 0 -21009408.380 -7579636.399 -12321049.357 10 0 59443 18000.00000 0 -22195318.791 -8231546.406 -9508420.111 10 0 59443 18900.00000 0 -23113537.999 -8620519.476 -6511136.059 10 0 59443 19800.00000 0 -23717858.498 -8778937.899 -3387441.633 10 0 59443 20700.00000 0 -23971676.585 -8748119.588 -198000.772 10 0 59443 21600.00000 0 -23849581.886 -8576321.566 2995282.245 10 0 59443 22500.00000 0 -23338495.519 -8316460.153 6130463.498 10 0 59443 23400.00000 0 -22438309.558 -8023645.054 9146758.139 10 0 59443 24300.00000 0 -21162001.456 -7752632.034 11985713.981 10 0 59443 25200.00000 0 -19535218.920 -7555301.952 14592337.503 10 0 59443 26100.00000 0 -17595352.839 -7478272.431 16916150.953 10 0 59443 27000.00000 0 -15390136.916 -7560742.603 18912160.862 10 0 59443 27900.00000 0 -12975832.022 -7832661.371 20541720.201 10 0 59443 28800.00000 0 -10415070.288 -8313295.963 21773268.432 10 0 59443 29700.00000 0 -7774447.635 -9010260.865 22582936.176 10 0 59443 30600.00000 0 -5121963.450 -9919048.100 22955003.654 10 0 59443 31500.00000 0 -2524412.419 -11023079.106 22882204.575 10 0 59443 32400.00000 0 -44835.149 -12294276.999 22365869.908 10 0 59443 33300.00000 0 2259868.104 -13694136.561 21415908.568 10 0 59443 34200.00000 0 4341062.818 -15175248.635 20050624.902 10 0 59443 35100.00000 0 6160157.574 -16683216.764 18296375.618 10 0 59443 36000.00000 0 7689960.341 -18158887.420 16187071.639 10 0 59443 36900.00000 0 8915557.719 -19540801.666 13763533.288 10 0 59443 37800.00000 0 9834680.783 -20767766.534 11072709.997 10 0 59443 38700.00000 0 10457542.437 -21781438.683 8166778.484 10 0 59443 39600.00000 0 10806153.104 -22528811.869 5102136.068 10 0 59443 40500.00000 0 10913143.639 -22964503.119 1938308.089 10 0 59443 41400.00000 0 10820145.201 -23052740.505 -1263209.540 10 0 59443 42300.00000 0 10575794.759 -22768967.493 -4440149.814 10 0 59443 43200.00000 0 10233451.083 -22100994.856 -7530692.271 10 0 59443 44100.00000 0 9848718.607 -21049650.036 -10474674.286 10 0 59443 45000.00000 0 9476884.950 -19628895.160 -13214771.322 10 0 59443 45900.00000 0 9170381.745 -17865407.490 -15697622.192 10 0 59443 46800.00000 0 8976377.476 -15797638.891 -17874876.488 10 0 59443 47700.00000 0 8934605.393 -13474393.168 -19704142.893 10 0 59443 48600.00000 0 9075519.484 -10952980.489 -21149819.467 10 0 59443 49500.00000 0 9418857.388 -8297025.952 -22183789.400 10 0 59443 50400.00000 0 9972671.663 -5574023.979 -22785968.650 10 0 59443 51300.00000 0 10732870.826 -2852740.638 -22944694.969 10 0 59443 52200.00000 0 11683289.853 -200572.193 -22656951.079 10 0 59443 53100.00000 0 12796287.269 2319030.106 -21928418.015 10 0 59443 54000.00000 0 14033843.714 4648962.161 -20773358.104 10 0 59443 54900.00000 0 15349115.634 6740596.701 -19214330.207 10 0 59443 55800.00000 0 16688378.483 8555552.676 -17281743.256 10 0 59443 56700.00000 0 17993277.501 10067031.935 -15013257.122 10 0 59443 57600.00000 0 19203291.097 11260668.968 -12453042.833 10 0 59443 58500.00000 0 20258302.977 12134860.024 -9650916.958 10 0 59443 59400.00000 0 21101174.616 12700559.834 -6661367.387 10 0 59443 60300.00000 0 21680209.753 12980556.570 -3542489.812 10 0 59443 61200.00000 0 21951407.193 13008257.454 -354856.078 10 0 59443 62100.00000 0 21880407.268 12826038.003 2839663.259 10 0 59443 63000.00000 0 21444050.285 12483226.006 5979099.067 10 0 59443 63900.00000 0 20631481.740 12033806.374 9002582.931 10 0 59443 64800.00000 0 19444758.108 11533944.539 11851522.445 10 0 59443 65700.00000 0 17898928.002 11039433.187 14470730.031 10 0 59443 66600.00000 0 16021585.309 10603170.060 16809483.865 10 0 59443 67500.00000 0 13851912.830 10272772.788 18822501.163 10 0 59443 68400.00000 0 11439255.825 10088430.770 20470805.932 10 0 59443 69300.00000 0 8841284.222 10081083.915 21722475.329 10 0 59443 70200.00000 0 6121818.868 10271004.364 22553251.248 10 0 59443 71100.00000 0 3348410.795 10666840.495 22947006.127 10 0 59443 72000.00000 0 589772.550 11265163.407 22896054.565 10 0 59443 72900.00000 0 -2086833.483 12050535.296 22401305.017 10 0 59443 73800.00000 0 -4618143.102 12996097.702 21472248.507 10 0 59443 74700.00000 0 -6947270.318 14064656.033 20126784.084 10 0 59443 75600.00000 0 -9025821.910 15210216.264 18390883.548 10 0 59443 76500.00000 0 -10815659.639 16379910.770 16298100.773 10 0 59443 77400.00000 0 -12290237.362 17516233.767 13888933.902 10 0 59443 78300.00000 0 -13435457.759 18559493.571 11210051.449 10 0 59443 79200.00000 0 -14250013.040 19450379.266 8313396.130 10 0 59443 80100.00000 0 -14745195.343 20132534.021 5255182.925 10 0 59443 81000.00000 0 -14944184.810 20555026.365 2094810.255 10 0 59443 81900.00000 0 -14880845.313 20674614.519 -1106294.809 10 0 59443 82800.00000 0 -14598078.729 20457707.087 -4285874.546 10 0 59443 83700.00000 0 -14145807.624 19881935.924 -7382057.937 10 0 59443 84600.00000 0 -13578672.177 18937273.166 -10334572.894 10 0 59443 85500.00000 0 -12953539.549 17626643.694 -13085928.648 10 0 59444 0.00000 0 -12326931.993 15966005.700 -15582544.258 10 0 59444 900.00000 0 -11752483.862 13983894.191 -17775800.584 10 0 59444 1800.00000 0 -11278535.254 11720446.675 -19622993.721 10 0 59444 2700.00000 0 -10945966.578 9225949.426 -21088171.643 10 0 59444 3600.00000 0 -10786364.566 6558966.214 -22142836.922 10 0 59444 4500.00000 0 -10820599.023 3784126.634 -22766501.873 10 0 59444 5400.00000 0 -11057870.125 969666.563 -22947085.541 10 0 59444 6300.00000 0 -11495266.730 -1815176.910 -22681145.084 10 0 59444 7200.00000 0 -12117854.148 -4502807.562 -21973937.428 10 0 59444 8100.00000 0 -12899287.413 -7029839.420 -20839310.477 10 0 59444 9000.00000 0 -13802923.815 -9339486.991 -19299426.403 10 0 59444 9900.00000 0 -14783387.327 -11383677.459 -17384322.851 10 0 59444 10800.00000 0 -15788518.545 -13124797.916 -15131320.995 10 0 59444 11700.00000 0 -16761627.480 -14537006.098 -12584292.293 10 0 59444 12600.00000 0 -17643953.804 -15607051.415 -9792798.650 10 0 59444 13500.00000 0 -18377230.500 -16334573.789 -6811123.088 10 0 59444 14400.00000 0 -18906242.579 -16731869.732 -3697210.142 10 0 59444 15300.00000 0 -19181272.802 -16823137.392 -511537.060 10 0 59444 16200.00000 0 -19160331.328 -16643234.218 2684061.914 10 0 59444 17100.00000 0 -18811075.348 -16236001.161 5827595.087 10 0 59444 18000.00000 0 -18112338.062 -15652225.328 8858113.167 10 0 59444 18900.00000 0 -17055202.758 -14947327.934 11716886.242 10 0 59444 19800.00000 0 -15643576.963 -14178875.511 14348535.352 10 0 59444 20700.00000 0 -13894242.531 -13404019.370 16702097.183 10 0 59444 21600.00000 0 -11836379.284 -12676970.929 18732002.054 10 0 59444 22500.00000 0 -9510581.550 -12046618.587 20398947.194 10 0 59444 23400.00000 0 -6967407.854 -11554385.683 21670649.374 10 0 59444 24300.00000 0 -4265522.981 -11232418.768 22522463.351 10 0 59444 25200.00000 0 -1469508.259 -11102181.631 22937855.045 10 0 59444 26100.00000 0 1352570.575 -11173513.634 22908720.866 10 0 59444 27000.00000 0 4131738.718 -11444191.732 22435547.348 10 0 59444 27900.00000 0 6800725.823 -11900014.837 21527407.896 10 0 59444 28800.00000 0 9296510.793 -12515407.547 20201796.209 10 0 59444 29700.00000 0 11562693.680 -13254518.864 18484298.798 10 0 59444 30600.00000 0 13551597.276 -14072770.853 16408111.748 10 0 59444 31500.00000 0 15226011.641 -14918793.308 14013409.893 10 0 59444 32400.00000 0 16560509.396 -15736664.113 11346579.284 10 0 59444 33300.00000 0 17542276.988 -16468361.732 8459326.635 10 0 59444 34200.00000 0 18171427.077 -17056326.869 5407682.165 10 0 59444 35100.00000 0 18460778.837 -17446025.170 2250914.556 10 0 59444 36000.00000 0 18435115.262 -17588402.226 -949621.099 10 0 59444 36900.00000 0 18129948.690 -17442126.191 -4131679.709 10 0 59444 37800.00000 0 17589846.737 -16975521.872 -7233343.148 10 0 59444 38700.00000 0 16866389.696 -16168112.982 -10194233.312 10 0 59444 39600.00000 0 16015846.239 -15011705.656 -12956696.556 10 0 59444 40500.00000 0 15096666.449 -13510965.804 -15466935.457 10 0 59444 41400.00000 0 14166899.039 -11683464.296 -17676064.927 10 0 59444 42300.00000 0 13281642.817 -9559186.740 -19541071.193 10 0 59444 43200.00000 0 12490640.919 -7179527.273 -21025654.480 10 0 59444 44100.00000 0 11836120.060 -4595807.680 -22100938.639 10 0 59444 45000.00000 0 11350966.451 -1867383.317 -22746033.805 10 0 59444 45900.00000 0 11057315.503 940585.437 -22948441.313 10 0 59444 46800.00000 0 10965614.664 3759603.465 -22704293.267 10 0 59444 47700.00000 0 11074198.554 6520450.068 -22018422.523 10 0 59444 48600.00000 0 11369393.723 9155818.588 -20904262.159 10 0 59444 49500.00000 0 11826147.916 11602876.963 -19383576.821 10 0 59444 50400.00000 0 12409156.504 13805643.023 -17486031.631 10 0 59444 51300.00000 0 13074437.777 15717076.386 -15248607.438 10 0 59444 52200.00000 0 13771289.846 17300800.781 -12714874.123 10 0 59444 53100.00000 0 14444545.865 18532386.115 -9934136.571 10 0 59444 54000.00000 0 15037031.759 19400138.272 -6960470.258 10 0 59444 54900.00000 0 15492122.217 19905365.317 -3851665.618 10 0 59444 55800.00000 0 15756286.688 20062110.686 -668102.162 10 0 59444 56700.00000 0 15781517.685 19896366.415 2528425.410 10 0 59444 57600.00000 0 15527538.859 19444801.128 5675906.065 10 0 59444 58500.00000 0 14963699.730 18753057.715 8713312.762 10 0 59444 59400.00000 0 14070477.298 17873693.444 11581781.016 10 0 59444 60300.00000 0 12840521.335 16863849.919 14225743.193 10 0 59444 61200.00000 0 11279199.365 15782751.178 16593996.936 10 0 59444 62100.00000 0 9404618.178 14689135.075 18640687.832 10 0 59444 63000.00000 0 7247120.358 13638725.364 20326188.237 10 0 59444 63900.00000 0 4848276.105 12681849.932 21617856.147 10 0 59444 64800.00000 0 2259411.176 11861304.219 22490660.515 10 0 59444 65700.00000 0 -460269.253 11210548.467 22927661.751 10 0 59444 66600.00000 0 -3245884.395 10752313.608 22920338.738 10 0 59444 67500.00000 0 -6029319.673 10497673.569 22468756.361 10 0 59444 68400.00000 0 -8741807.064 10445622.631 21581570.244 10 0 59444 69300.00000 0 -11316538.554 10583175.622 20275868.120 10 0 59444 70200.00000 0 -13691205.775 10885987.150 18576850.118 10 0 59444 71100.00000 0 -15810361.578 11319464.557 16517353.000 10 0 59444 72000.00000 0 -17627506.087 11840328.655 14137226.349 10 0 59444 72900.00000 0 -19106810.874 12398557.415 11482571.476 10 0 59444 73800.00000 0 -20224409.458 12939631.469 8604856.567 10 0 59444 74700.00000 0 -20969199.979 13406987.130 5559924.375 10 0 59444 75600.00000 0 -21343126.174 13744573.456 2406911.042 10 0 59444 76500.00000 0 -21360924.514 13899404.907 -792903.171 10 0 59444 77400.00000 0 -21049347.817 13824000.840 -3977288.675 10 0 59444 78300.00000 0 -20445897.938 13478607.451 -7084283.097 10 0 59444 79200.00000 0 -19597121.048 12833106.607 -10053405.131 10 0 59444 80100.00000 0 -18556537.771 11868529.172 -12826840.975 10 0 59444 81000.00000 0 -17382296.104 10578107.071 -15350579.251 10 0 59444 81900.00000 0 -16134646.926 8967817.901 -17575471.355 10 0 59444 82800.00000 0 -14873349.418 7056397.580 -19458195.688 10 0 59444 83700.00000 0 -13655116.644 4874819.080 -20962106.457 10 0 59444 84600.00000 0 -12531209.586 2465257.969 -22057950.182 10 0 59444 85500.00000 0 -11545281.455 -120412.687 -22724435.820 10 0 59445 0.00000 0 -10731563.150 -2822535.678 -22948647.616 10 0 59445 900.00000 0 -10113466.313 -5575912.027 -22726292.843 10 0 59445 1800.00000 0 -9702661.465 -8312278.534 -22061780.150 10 0 59445 2700.00000 0 -9498670.772 -10962917.954 -20968127.240 10 0 59445 3600.00000 0 -9488989.859 -13461293.234 -19466700.351 10 0 59445 4500.00000 0 -9649733.677 -15745596.161 -17586790.868 10 0 59445 5400.00000 0 -9946777.435 -17761104.945 -15365037.807 10 0 59445 6300.00000 0 -10337343.491 -19462253.122 -12844707.754 10 0 59445 7200.00000 0 -10771966.099 -20814324.323 -10074846.667 10 0 59445 8100.00000 0 -11196750.128 -21794703.331 -7109320.465 10 0 59445 9000.00000 0 -11555827.503 -22393632.508 -4005763.386 10 0 59445 9900.00000 0 -11793907.001 -22614443.375 -824455.056 10 0 59445 10800.00000 0 -11858809.205 -22473255.314 2372851.568 10 0 59445 11700.00000 0 -11703879.290 -21998155.575 5524128.379 10 0 59445 12600.00000 0 -11290175.639 -21227896.449 8568272.901 10 0 59445 13500.00000 0 -10588341.941 -20210165.546 11446288.467 10 0 59445 14400.00000 0 -9580083.853 -18999502.663 14102421.177 10 0 59445 15300.00000 0 -8259188.017 -17654951.226 16485232.027 10 0 59445 16200.00000 0 -6632040.368 -16237542.910 18548584.212 10 0 59445 17100.00000 0 -4717621.493 -14807720.609 20252527.410 10 0 59445 18000.00000 0 -2546978.485 -13422807.080 21564062.874 10 0 59445 18900.00000 0 -162194.217 -12134624.363 22457775.551 10 0 59445 19800.00000 0 2385104.437 -10987362.517 22916321.893 10 0 59445 20700.00000 0 5035638.948 -10015785.825 22930764.539 10 0 59445 21600.00000 0 7724695.261 -9243850.548 22500747.730 10 0 59445 22500.00000 0 10384573.573 -8683791.324 21634510.025 10 0 59445 23400.00000 0 12947171.770 -8335714.108 20348733.616 10 0 59445 24300.00000 0 15346596.938 -8187712.568 18668232.356 10 0 59445 25200.00000 0 17521697.718 -8216503.290 16625483.437 10 0 59445 26100.00000 0 19418413.098 -8388553.574 14260010.554 10 0 59445 27000.00000 0 20991840.327 -8661654.932 11617629.190 10 0 59445 27900.00000 0 22207935.862 -8986876.579 8749567.450 10 0 59445 28800.00000 0 23044777.985 -9310816.897 5711478.555 10 0 59445 29700.00000 0 23493337.831 -9578057.931 2562363.573 10 0 59445 30600.00000 0 23557725.930 -9733718.865 -636575.034 10 0 59445 31500.00000 0 23254903.343 -9725999.827 -3823126.464 10 0 59445 32400.00000 0 22613869.131 -9508607.274 -6935287.592 10 0 59445 33300.00000 0 21674358.161 -9042956.891 -9912477.481 10 0 59445 34200.00000 0 20485104.145 -8300059.151 -12696725.703 10 0 59445 35100.00000 0 19101741.415 -7262005.998 -15233810.322 10 0 59445 36000.00000 0 17584434.394 -5922994.028 -17474322.406 10 0 59445 36900.00000 0 15995335.279 -4289839.270 -19374635.453 10 0 59445 37800.00000 0 14395977.693 -2381960.370 -20897760.263 10 0 59445 38700.00000 0 12844716.604 -230829.457 -22014068.279 10 0 59445 39600.00000 0 11394322.602 2121087.217 -22701869.157 10 0 59445 40500.00000 0 10089831.839 4621855.336 -22947831.480 10 0 59445 41400.00000 0 8966741.745 7212002.047 -22747238.708 10 0 59445 42300.00000 0 8049627.849 9826768.634 -22104075.769 10 0 59445 43200.00000 0 7351238.901 12398592.650 -21030945.069 10 0 59445 44100.00000 0 6872107.196 14859716.201 -19548814.003 10 0 59445 45000.00000 0 6600689.128 17144811.775 -17686599.322 10 0 59445 45900.00000 0 6514028.550 19193516.461 -15480596.871 10 0 59445 46800.00000 0 6578913.485 20952769.306 -12973768.143 10 0 59445 47700.00000 0 6753475.958 22378854.796 -10214897.973 10 0 59445 48600.00000 0 6989166.079 23439067.937 -7257640.131 10 0 59445 49500.00000 0 7233015.844 24112932.379 -4159469.742 10 0 59445 50400.00000 0 7430096.069 24392921.710 -980563.376 10 0 59445 51300.00000 0 7526061.908 24284655.098 2217371.088 10 0 59445 52200.00000 0 7469678.850 23806560.424 5372291.856 10 0 59445 53100.00000 0 7215222.244 22989020.319 8423024.371 10 0 59445 54000.00000 0 6724648.884 21873038.111 11310442.992 10 0 59445 54900.00000 0 5969448.988 20508480.487 13978610.561 10 0 59445 55800.00000 0 4932100.532 18951971.134 16375854.190 10 0 59445 56700.00000 0 3607064.590 17264523.776 18455757.166 10 0 59445 57600.00000 0 2001279.480 15509013.472 20178048.694 10 0 59445 58500.00000 0 134132.430 13747591.386 21509375.173 10 0 59445 59400.00000 0 -1963091.034 12039150.195 22423939.115 10 0 59445 60300.00000 0 -4248258.337 10436944.867 22903994.242 10 0 59445 61200.00000 0 -6669899.399 8986467.001 22940187.786 10 0 59445 62100.00000 0 -9169113.481 7723660.266 22531743.764 10 0 59445 63000.00000 0 -11681795.950 6673550.421 21686483.631 10 0 59445 63900.00000 0 -14141094.192 5849346.382 20420683.496 10 0 59445 64800.00000 0 -16479992.346 5252049.410 18758769.901 10 0 59445 65700.00000 0 -18633918.825 4870586.558 16732858.935 10 0 59445 66600.00000 0 -20543269.081 4682462.861 14382146.418 10 0 59445 67500.00000 0 -22155739.143 4654905.109 11752159.639 10 0 59445 68400.00000 0 -23428372.749 4746449.363 8893883.931 10 0 59445 69300.00000 0 -24329236.228 4908905.617 5862780.103 10 0 59445 70200.00000 0 -24838650.488 5089616.741 2717711.122 10 0 59445 71100.00000 0 -24949927.738 5233916.016 -480201.415 10 0 59445 72000.00000 0 -24669581.130 5287678.817 -3668768.575 10 0 59445 72900.00000 0 -24016997.818 5199859.438 -6785949.517 10 0 59445 73800.00000 0 -23023588.575 4924904.456 -9771066.653 10 0 59445 74700.00000 0 -21731449.483 4424938.882 -12565995.790 10 0 59445 75600.00000 0 -20191591.962 3671630.917 -15116307.124 10 0 59445 76500.00000 0 -18461815.911 2647654.655 -17372333.852 10 0 59445 77400.00000 0 -16604315.851 1347687.255 -19290146.701 10 0 59445 78300.00000 0 -14683121.317 -221103.101 -20832414.808 10 0 59445 79200.00000 0 -12761479.526 -2039100.451 -21969135.838 10 0 59445 80100.00000 0 -10899290.674 -4074814.829 -22678220.961 10 0 59445 81000.00000 0 -9150703.662 -6285963.441 -22945923.439 10 0 59445 81900.00000 0 -7561972.896 -8621014.648 -22767102.780 10 0 59445 82800.00000 0 -6169665.622 -11021130.580 -22145319.650 10 0 59445 83700.00000 0 -4999294.074 -13422427.477 -21092760.207 10 0 59445 84600.00000 0 -4064428.595 -15758459.576 -19629991.741 10 0 59445 85500.00000 0 -3366327.552 -17962822.888 -17785554.833 99